THOR ABLESTAR DEB, 1504

Orbit data source: Space-Track

THOR ABLESTAR DEB, 1504 is space debris in LEO originally from a launch on Fri, 13 Aug 1965 UTC launched from the Air Force Western Test Range (AFWTR). Debris objects in space refer to the collection of defunct objects orbiting the Earth. Examples of debris include non-operational satellites, rocket bodies, and fragments generated from explosions, collisions, or faulty payload assembly.

Loading next visibility...
Identifier
1504, 1965-065A
Orbit
LEO
Last TLE update
20 hours ago
Origin
Manufacturer
NRL
Mission
Spacecraft
Bus & Motor
Unknown
Mass
Unknown
Launch date (UTC)
1965-08-13 (60 years ago)
Launch vehicle
Unknown
Launch site
Air Force Western Test Range (AFWTR)
Object type
Payload
Rocket body
Debris
Shape & HBR
Unknown
Radar Cross Section
Small (<0.1 m²)

Expand to show TLE details & history

TLE from 20 hours ago
0 THOR ABLESTAR DEB
1 01504U 65065A   25128.38200264  .00000268  00000-0  46966-3 0  9995
2 01504  89.9426 243.5589 0064298 288.0966 138.6546 13.40232584913484
Epoch: 2025-05-08T09:10Z
Definitive object data (Epoch: 2025-05-08T09:10:05.028Z)
Latitude
67.31086°
Longitude
-120.27876°
Altitude
1,156.423 km
Speed
7.263 km/s
True Right ascension
16h 14m 46s
True Declination
67° 11' 41"
Sunlit
Object was in daylight at TLE epoch
Visualization TLE readout
Latitude
73.43843°
Longitude
-120.228°
Altitude
1,161.693 km
Speed
7.259 km/s
Apparent Right ascension
23h 23m 42s
Apparent Declination
39° 27' 01"
Sunlit
Object is in daylight
Visualization observer readout
Local Sidereal Time
13:03:06
Azimuth
19.103° NNE
Elevation
-7.452°
Doppler factor
1
Orbital elements
Apogee altitude
1,153.595 km
Perigee altitude
1,057.359 km
Semi-major axis
7,483.614 km
Eccentricity
0.0064298
Inclination
89.9426°
RAAN
243.5589°
Arg. of periapsis
288.0966°
True anomaly
139.1384°
Mean anomaly
138.6546°
Eccentric anomaly
138.89679°
Mean motion
3.35256 °/min
BSTAR
0.00046966
Orbital period
107.38 mins
Loading maneuver chart data...
Loading SW <> Apogee altitude chart data...
Loading historical data...
Loading historical data...
Loading historical data...
Loading historical data...
Loading historical data...
Loading historical data...
Loading historical data...

THOR ABLESTAR DEB Visibility forecast

Observer location: undefined°, undefined°

Span
Click to sort rows by Start time (UTC) header in descending order
Start Az.
Max El. time (UTC)
Max El. Az.
Max El.
End time (UTC)
End Az.
8 mins2025-05-09 06:29:31.536Z105.206° ESE2025-05-09 06:32:31.536Z76.279° E17.912°2025-05-09 06:37:31.536Z29.875° NE
11 mins2025-05-09 08:14:31.536Z187.52° SSW2025-05-09 08:19:31.536Z275.336° WNW43.603°2025-05-09 08:25:31.536Z352.802° N
12 mins2025-05-09 19:29:31.536Z14.608° NNE2025-05-09 19:34:31.536Z79.837° E40.034°2025-05-09 19:41:31.536Z166.703° S
9 mins2025-05-09 21:17:31.536Z327.913° NNW2025-05-09 21:21:31.536Z285.742° WNW22.603°2025-05-09 21:26:31.536Z237.324° WSW
|